DW0125 Weather Reports


Display with metric or nautical units.
time (UTC)temp
F
wind
direction
speed
MPH
gust
MPH
rain 1hr
in
rain 24hr
in
rain mn
in
humidity
%
barometer
mb
20190323003217 46 199 1.0 3.0 0.00 0.00 0.00 91 1028.7
20190323003017 46 199 1.0 3.0 0.00 0.00 0.00 91 1028.6
20190323002516 46 235 1.0 3.0 0.00 0.00 0.00 91 1028.7
20190323002217 46 235 2.0 3.0 0.00 0.00 0.00 91 1028.6
20190323002017 46 216 1.0 3.0 0.00 0.00 0.00 91 1028.7
20190323001518 46 224 2.0 3.0 0.00 0.00 0.00 91 1028.6
20190323001217 47 202 1.0 3.0 0.00 0.00 0.00 91 1028.6
20190323001017 47 202 3.0 6.0 0.00 0.00 0.00 91 1028.6
20190323000519 47 239 2.0 5.0 0.00 0.00 0.00 91 1028.5
20190323000216 47 216 2.0 3.0 0.00 0.00 0.00 91 1028.4
20190323000016 47 221 2.0 3.0 0.00 0.00 0.00 91 1028.4
20190322235516 47 206 1.0 3.0 0.00 0.00 0.00 91 1028.4
20190322235216 47 216 2.0 3.0 0.00 0.00 0.00 91 1028.4
20190322235017 47 214 1.0 3.0 0.00 0.00 0.00 91 1028.3
20190322234516 47 197 2.0 3.0 0.00 0.00 0.00 91 1028.3
20190322234217 47 195 2.0 3.0 0.00 0.00 0.00 91 1028.2
20190322234018 47 217 2.0 5.0 0.00 0.00 0.00 91 1028.2
20190322233518 47 196 3.0 6.0 0.00 0.00 0.00 90 1028.3
20190322233216 47 197 2.0 3.0 0.00 0.00 0.00 90 1028.4
20190322233017 47 200 2.0 5.0 0.00 0.00 0.00 90 1028.4
20190322232516 47 198 2.0 5.0 0.00 0.00 0.00 90 1028.4
20190322232217 47 201 2.0 3.0 0.00 0.00 0.00 89 1028.4
20190322232017 47 203 2.0 3.0 0.00 0.00 0.00 89 1028.4
20190322231517 48 203 1.0 2.0 0.00 0.00 0.00 89 1028.4
20190322231217 48 204 1.0 2.0 0.00 0.00 0.00 87 1028.5
20190322231017 48 204 1.0 3.0 0.00 0.00 0.00 87 1028.5
20190322230517 48 203 0.0 2.0 0.00 0.00 0.00 87 1028.5
20190322230216 48 205 1.0 3.0 0.00 0.00 0.00 87 1028.5
20190322230017 48 206 1.0 3.0 0.00 0.00 0.00 87 1028.5
20190322225517 48 219 2.0 5.0 0.00 0.00 0.00 87 1028.4
20190322225217 49 195 2.0 5.0 0.00 0.00 0.00 87 1028.4
20190322225017 49 200 2.0 5.0 0.00 0.00 0.00 87 1028.3
20190322224517 49 250 1.0 3.0 0.00 0.00 0.00 87 1028.5
20190322224217 49 220 2.0 3.0 0.00 0.00 0.00 86 1028.5
20190322224017 49 217 2.0 5.0 0.00 0.00 0.00 86 1028.5
20190322223517 49 228 3.0 6.0 0.00 0.00 0.00 86 1028.5
20190322223217 49 244 2.0 3.0 0.00 0.00 0.00 86 1028.4
20190322223017 49 207 3.0 5.0 0.00 0.00 0.00 86 1028.4
20190322222516 49 221 2.0 3.0 0.00 0.00 0.00 86 1028.4
20190322222216 49 205 2.0 3.0 0.00 0.00 0.00 86 1028.4
20190322222017 50 231 3.0 6.0 0.00 0.00 0.00 86 1028.4
20190322221517 50 202 3.0 6.0 0.00 0.00 0.00 86 1028.4
20190322221217 50 222 3.0 5.0 0.00 0.00 0.00 86 1028.4
20190322221017 50 188 3.0 6.0 0.00 0.00 0.00 85 1028.4
20190322220516 50 234 2.0 6.0 0.00 0.00 0.00 85 1028.5
20190322220216 50 257 1.0 3.0 0.00 0.00 0.00 85 1028.4
20190322220016 50 213 1.0 7.0 0.00 0.00 0.00 85 1028.4
20190322215516 50 213 2.0 5.0 0.00 0.00 0.00 85 1028.4
20190322215216 50 230 1.0 5.0 0.00 0.00 0.00 85 1028.4
20190322215017 50 216 2.0 6.0 0.00 0.00 0.00 85 1028.4
20190322214516 50 220 2.0 3.0 0.00 0.00 0.00 85 1028.5
20190322214216 50 223 3.0 5.0 0.00 0.00 0.00 85 1028.5
20190322214018 50 235 2.0 5.0 0.00 0.00 0.00 85 1028.4
20190322213517 50 226 4.0 7.0 0.00 0.00 0.00 85 1028.5
20190322213216 50 223 3.0 6.0 0.00 0.00 0.00 84 1028.5
20190322213018 50 231 2.0 3.0 0.00 0.00 0.00 84 1028.5
20190322212516 50 221 3.0 6.0 0.00 0.00 0.00 84 1028.5
20190322212216 50 215 2.0 7.0 0.00 0.00 0.00 84 1028.5
20190322212017 50 198 3.0 7.0 0.00 0.00 0.00 84 1028.4
20190322211517 50 220 3.0 7.0 0.00 0.00 0.00 84 1028.4
20190322211216 50 198 4.0 7.0 0.00 0.00 0.00 84 1028.3
20190322211018 50 196 2.0 8.0 0.00 0.00 0.00 84 1028.3
20190322210516 50 196 2.0 6.0 0.00 0.00 0.00 84 1028.3
20190322210216 50 194 2.0 3.0 0.00 0.00 0.00 84 1028.3
20190322210017 50 196 2.0 9.0 0.00 0.00 0.00 84 1028.3
20190322205516 50 194 2.0 6.0 0.00 0.00 0.00 82 1028.3
20190322205217 50 188 4.0 6.0 0.00 0.00 0.00 82 1028.3
20190322205017 50 202 3.0 7.0 0.00 0.00 0.00 84 1028.3
20190322204516 50 196 3.0 6.0 0.00 0.00 0.00 83 1028.3
20190322204216 50 204 3.0 6.0 0.00 0.00 0.00 82 1028.3
20190322204017 50 193 3.0 12.0 0.00 0.00 0.00 82 1028.3
20190322203517 50 210 3.0 5.0 0.00 0.00 0.00 82 1028.3
20190322203216 50 191 3.0 6.0 0.00 0.00 0.00 82 1028.3
20190322203017 50 193 3.0 5.0 0.00 0.00 0.00 82 1028.2
20190322202516 50 192 1.0 5.0 0.00 0.00 0.00 82 1028.3
20190322202216 50 205 3.0 5.0 0.00 0.00 0.00 82 1028.3
20190322202016 50 199 3.0 5.0 0.00 0.00 0.00 82 1028.3
20190322201517 50 193 3.0 5.0 0.00 0.00 0.00 82 1028.3
20190322201216 50 202 3.0 5.0 0.00 0.00 0.00 82 1028.2
20190322201017 50 205 3.0 6.0 0.00 0.00 0.00 82 1028.2
20190322200516 50 196 2.0 5.0 0.00 0.00 0.00 82 1028.3
20190322200216 50 206 4.0 7.0 0.00 0.00 0.00 82 1028.3
20190322200016 50 199 3.0 7.0 0.00 0.00 0.00 82 1028.2
20190322195516 50 191 2.0 5.0 0.00 0.00 0.00 82 1028.2
20190322195216 50 190 2.0 5.0 0.00 0.00 0.00 82 1028.1
20190322195016 50 184 3.0 6.0 0.00 0.00 0.00 82 1028.1
20190322194516 50 195 3.0 5.0 0.00 0.00 0.00 82 1028.2
20190322194217 50 200 2.0 3.0 0.00 0.00 0.00 82 1028.2
20190322194017 50 215 2.0 3.0 0.00 0.00 0.00 81 1028.2
20190322193517 50 247 1.0 2.0 0.00 0.00 0.00 81 1028.2
20190322193216 50 247 2.0 3.0 0.00 0.00 0.00 81 1028.2
20190322193016 50 229 2.0 3.0 0.00 0.00 0.00 81 1028.2
20190322192516 50 208 0.0 1.0 0.00 0.00 0.00 81 1028.2
20190322192216 50 208 2.0 2.0 0.00 0.00 0.00 81 1028.1
20190322192016 50 208 1.0 3.0 0.00 0.00 0.00 81 1028.2
20190322191517 50 208 1.0 2.0 0.00 0.00 0.00 81 1028.2
20190322191216 50 208 1.0 2.0 0.00 0.00 0.00 81 1028.2
20190322191017 50 209 1.0 2.0 0.00 0.00 0.00 81 1028.2
20190322190516 50 209 0.0 2.0 0.00 0.00 0.00 81 1028.2
20190322190216 50 208 2.0 3.0 0.00 0.00 0.00 81 1028.1
20190322190016 50 218 1.0 3.0 0.00 0.00 0.00 81 1028.1
20190322185516 50 232 1.0 3.0 0.00 0.00 0.00 81 1028.1
20190322185217 50 232 2.0 3.0 0.00 0.00 0.00 81 1028.1
20190322185016 50 232 2.0 3.0 0.00 0.00 0.00 81 1028.1
20190322184516 50 224 2.0 3.0 0.00 0.00 0.00 81 1028.0
20190322184217 50 224 1.0 2.0 0.00 0.00 0.00 81 1028.0
20190322184017 50 223 1.0 5.0 0.00 0.00 0.00 80 1028.0
20190322183516 50 229 2.0 5.0 0.00 0.00 0.00 81 1028.0
20190322183216 50 227 2.0 5.0 0.00 0.00 0.00 80 1028.0
20190322183016 50 242 5.0 12.0 0.00 0.00 0.00 80 1028.0
20190322182516 50 293 3.0 10.0 0.00 0.00 0.00 81 1028.1
20190322182215 50 283 3.0 7.0 0.00 0.00 0.00 81 1028.1
20190322182017 50 246 4.0 8.0 0.00 0.00 0.00 81 1028.1
20190322181517 50 255 4.0 8.0 0.00 0.00 0.00 81 1028.0
20190322181216 50 281 3.0 8.0 0.00 0.00 0.00 81 1027.9
20190322181017 50 259 2.0 8.0 0.00 0.00 0.00 81 1027.9
20190322180516 51 270 2.0 6.0 0.00 0.00 0.00 81 1027.8
20190322180216 51 259 3.0 3.0 0.00 0.00 0.00 81 1027.8
20190322180016 51 248 2.0 5.0 0.00 0.00 0.00 81 1027.8
20190322175516 51 242 2.0 6.0 0.00 0.00 0.00 81 1027.8
20190322175216 51 257 2.0 6.0 0.00 0.00 0.00 80 1027.7
20190322175016 51 220 5.0 10.0 0.00 0.00 0.00 80 1027.8
20190322174516 51 238 3.0 10.0 0.00 0.00 0.00 81 1027.7
20190322174216 51 227 3.0 7.0 0.00 0.00 0.00 81 1027.6
20190322174016 51 223 3.0 8.0 0.00 0.00 0.00 81 1027.6
20190322173516 51 222 2.0 6.0 0.00 0.00 0.00 82 1027.6
20190322173216 51 218 1.0 2.0 0.00 0.00 0.00 82 1027.5
20190322173017 51 218 1.0 3.0 0.00 0.00 0.00 82 1027.5
20190322172516 51 249 3.0 6.0 0.00 0.00 0.00 81 1027.5
20190322172216 51 243 4.0 8.0 0.00 0.00 0.00 81 1027.4
20190322172016 51 263 3.0 5.0 0.00 0.00 0.00 81 1027.5
20190322171517 51 204 3.0 7.0 0.00 0.00 0.00 81 1027.4
20190322171216 51 200 3.0 7.0 0.00 0.00 0.00 81 1027.4
20190322171016 51 219 3.0 6.0 0.00 0.00 0.00 81 1027.4
20190322170515 51 210 3.0 7.0 0.00 0.00 0.00 81 1027.4
20190322170216 51 237 2.0 7.0 0.00 0.00 0.00 81 1027.3
20190322170015 51 220 3.0 8.0 0.00 0.00 0.00 81 1027.3
20190322165516 51 242 4.0 8.0 0.00 0.00 0.00 81 1027.3
20190322165216 51 222 3.0 5.0 0.00 0.00 0.00 81 1027.3
20190322165016 51 234 2.0 5.0 0.00 0.00 0.00 81 1027.3
20190322164516 51 232 4.0 8.0 0.00 0.00 0.00 81 1027.3
20190322164216 51 224 2.0 7.0 0.00 0.00 0.00 81 1027.3
20190322164017 51 224 3.0 5.0 0.00 0.00 0.00 81 1027.3
20190322163517 51 256 3.0 9.0 0.00 0.00 0.00 81 1027.2
20190322163215 51 225 3.0 7.0 0.00 0.00 0.00 81 1027.2
20190322163017 51 241 4.0 7.0 0.00 0.00 0.00 81 1027.2
20190322162515 51 252 4.0 8.0 0.00 0.00 0.00 81 1027.2
20190322162216 51 207 3.0 5.0 0.00 0.00 0.00 81 1027.2
20190322162016 51 243 5.0 10.0 0.00 0.00 0.00 81 1027.2
20190322161517 51 234 2.0 7.0 0.00 0.00 0.00 80 1027.2
20190322161216 51 246 5.0 8.0 0.00 0.00 0.00 80 1027.2
20190322161016 51 237 2.0 6.0 0.00 0.00 0.00 80 1027.2
20190322160516 51 267 3.0 7.0 0.00 0.00 0.00 80 1027.2
20190322160216 51 239 2.0 3.0 0.00 0.00 0.00 80 1027.2
20190322160016 51 214 3.0 6.0 0.00 0.00 0.00 80 1027.2
20190322155516 51 212 3.0 8.0 0.00 0.00 0.00 80 1027.3
20190322155216 51 230 1.0 6.0 0.00 0.00 0.00 80 1027.4
20190322155016 51 231 1.0 7.0 0.00 0.00 0.00 81 1027.4
20190322154516 51 271 2.0 3.0 0.00 0.00 0.00 80 1027.4
20190322154217 51 287 3.0 6.0 0.00 0.00 0.00 80 1027.4
20190322154017 51 214 3.0 8.0 0.00 0.00 0.00 80 1027.4
20190322153517 51 271 5.0 6.0 0.00 0.00 0.00 80 1027.4
20190322153215 51 227 2.0 6.0 0.00 0.00 0.00 80 1027.4
20190322153017 51 223 3.0 7.0 0.00 0.00 0.00 80 1027.4
20190322152516 51 224 3.0 5.0 0.00 0.00 0.00 80 1027.5
20190322152215 51 227 3.0 6.0 0.00 0.00 0.00 80 1027.5
20190322152016 51 201 4.0 8.0 0.00 0.00 0.00 80 1027.4
20190322151518 51 216 4.0 7.0 0.00 0.00 0.00 80 1027.4
20190322151217 51 197 2.0 3.0 0.00 0.00 0.00 80 1027.4
20190322151016 51 209 4.0 9.0 0.00 0.00 0.00 80 1027.5
20190322150516 51 209 3.0 6.0 0.00 0.00 0.00 80 1027.5
20190322150216 51 215 2.0 5.0 0.00 0.00 0.00 80 1027.6
20190322150015 51 217 3.0 10.0 0.00 0.00 0.00 80 1027.6
20190322145516 51 208 4.0 9.0 0.00 0.00 0.00 80 1027.5
20190322145216 51 207 2.0 7.0 0.00 0.00 0.00 81 1027.6
20190322145016 51 207 2.0 5.0 0.00 0.00 0.00 81 1027.6
20190322144515 51 246 3.0 8.0 0.00 0.00 0.00 81 1027.6
20190322144216 51 198 3.0 7.0 0.00 0.00 0.00 81 1027.7
20190322144016 51 183 3.0 7.0 0.00 0.00 0.00 81 1027.8
20190322143517 51 156 4.0 8.0 0.00 0.00 0.00 81 1027.8
20190322143215 51 225 3.0 8.0 0.00 0.00 0.00 81 1027.8
20190322143016 51 193 5.0 8.0 0.00 0.00 0.00 81 1027.8
20190322142516 51 244 5.0 9.0 0.00 0.00 0.00 81 1027.8
20190322142216 51 209 4.0 8.0 0.00 0.00 0.00 81 1027.8
20190322142016 51 209 3.0 7.0 0.00 0.00 0.00 81 1027.8
20190322141516 51 219 2.0 6.0 0.00 0.00 0.00 81 1027.8
20190322141215 51 217 3.0 6.0 0.00 0.00 0.00 81 1027.8
20190322141016 51 266 2.0 6.0 0.00 0.00 0.00 81 1027.8
20190322140516 51 230 5.0 10.0 0.00 0.00 0.00 81 1027.8
20190322140215 51 221 3.0 6.0 0.00 0.00 0.00 81 1027.8
20190322140016 51 200 3.0 7.0 0.00 0.00 0.00 81 1027.8
20190322135516 51 204 3.0 5.0 0.00 0.00 0.00 81 1027.9
20190322135216 51 213 3.0 6.0 0.00 0.00 0.00 81 1027.9
20190322135016 51 197 5.0 8.0 0.00 0.00 0.00 81 1027.9
20190322134516 51 239 2.0 7.0 0.00 0.00 0.00 81 1028.0
20190322134215 51 208 3.0 7.0 0.00 0.00 0.00 81 1028.0
20190322134017 51 196 5.0 9.0 0.00 0.00 0.00 81 1027.9
20190322133518 51 187 3.0 8.0 0.00 0.00 0.00 81 1028.0
20190322133215 51 189 2.0 9.0 0.00 0.00 0.00 82 1028.0
20190322133016 51 208 3.0 9.0 0.00 0.00 0.00 81 1028.0
20190322132515 51 188 6.0 10.0 0.00 0.00 0.00 81 1028.0
20190322132216 51 198 4.0 9.0 0.00 0.00 0.00 82 1028.1
20190322132017 51 194 5.0 9.0 0.00 0.00 0.00 82 1028.1
20190322131516 51 193 5.0 10.0 0.00 0.00 0.00 81 1028.2
20190322131215 51 210 5.0 10.0 0.00 0.00 0.00 82 1028.2
20190322131016 51 202 5.0 9.0 0.00 0.00 0.00 82 1028.2
20190322130515 51 190 2.0 5.0 0.00 0.00 0.00 82 1028.3
20190322130215 51 195 4.0 8.0 0.00 0.00 0.00 82 1028.3
20190322130016 51 198 5.0 10.0 0.00 0.00 0.00 82 1028.3
20190322125515 51 203 6.0 9.0 0.00 0.00 0.00 81 1028.3
20190322125215 51 208 4.0 7.0 0.00 0.00 0.00 81 1028.3
20190322125017 51 203 6.0 12.0 0.00 0.00 0.00 81 1028.4
20190322124515 51 205 6.0 10.0 0.00 0.00 0.00 81 1028.5
20190322124216 51 201 5.0 7.0 0.00 0.00 0.00 81 1028.5
20190322124016 51 198 6.0 12.0 0.00 0.00 0.00 81 1028.5
20190322123516 51 220 3.0 7.0 0.00 0.00 0.00 81 1028.5
20190322123215 51 249 2.0 5.0 0.00 0.00 0.00 81 1028.6
20190322123016 51 261 2.0 8.0 0.00 0.00 0.00 82 1028.5
20190322122515 51 239 4.0 6.0 0.00 0.00 0.00 82 1028.6
20190322122215 50 203 5.0 7.0 0.00 0.00 0.00 81 1028.5
20190322122016 50 198 5.0 9.0 0.00 0.00 0.00 82 1028.5
20190322121516 50 202 5.0 9.0 0.00 0.00 0.00 82 1028.5
20190322121216 50 205 6.0 10.0 0.00 0.00 0.00 82 1028.6
20190322121016 50 200 6.0 10.0 0.00 0.00 0.00 82 1028.6
20190322120516 50 213 4.0 7.0 0.00 0.00 0.00 84 1028.6
20190322120216 50 221 5.0 8.0 0.00 0.00 0.00 82 1028.6
20190322120016 50 211 4.0 10.0 0.00 0.00 0.00 82 1028.6
20190322115515 50 205 6.0 10.0 0.00 0.00 0.00 82 1028.7
20190322115215 50 185 6.0 8.0 0.00 0.00 0.00 84 1028.7
20190322115016 50 206 6.0 9.0 0.00 0.00 0.00 84 1028.7
20190322114516 50 212 5.0 9.0 0.00 0.00 0.00 84 1028.8
20190322114215 50 201 5.0 6.0 0.00 0.00 0.00 84 1028.8
20190322114016 50 199 6.0 10.0 0.00 0.00 0.00 84 1028.8
20190322113517 50 219 3.0 6.0 0.00 0.00 0.00 85 1028.8
20190322113216 50 224 3.0 6.0 0.00 0.00 0.00 85 1028.7
20190322113016 49 226 3.0 6.0 0.00 0.00 0.00 85 1028.8
20190322112516 49 200 3.0 7.0 0.00 0.00 0.00 85 1028.8
20190322112215 49 199 5.0 7.0 0.00 0.00 0.00 85 1028.8
20190322112016 49 213 2.0 8.0 0.00 0.00 0.00 86 1028.8
20190322111517 49 232 4.0 7.0 0.00 0.00 0.00 85 1028.9
20190322111215 49 191 5.0 8.0 0.00 0.00 0.00 85 1028.9
20190322111017 49 199 6.0 9.0 0.00 0.00 0.00 86 1028.9
20190322110515 49 225 3.0 6.0 0.00 0.00 0.00 86 1028.9
20190322110215 49 244 2.0 6.0 0.00 0.00 0.00 86 1029.0
20190322110015 49 260 3.0 6.0 0.00 0.00 0.00 86 1029.0
20190322105515 49 256 2.0 3.0 0.00 0.00 0.00 86 1029.0
20190322105216 49 203 3.0 6.0 0.00 0.00 0.00 86 1029.1
20190322105016 49 201 2.0 8.0 0.00 0.00 0.00 86 1029.1
20190322104516 49 235 2.0 6.0 0.00 0.00 0.00 87 1029.2
20190322104018 49 204 2.0 6.0 0.00 0.00 0.00 87 1029.2
20190322103517 49 190 4.0 8.0 0.00 0.00 0.00 87 1029.2
20190322103217 49 208 3.0 7.0 0.00 0.00 0.00 87 1029.3
20190322103016 49 190 4.0 8.0 0.00 0.00 0.00 87 1029.3
20190322102515 49 217 3.0 6.0 0.00 0.00 0.00 87 1029.3
20190322102215 49 192 6.0 9.0 0.00 0.00 0.00 87 1029.3
20190322102015 49 204 3.0 7.0 0.00 0.00 0.00 87 1029.3
20190322101516 49 238 3.0 6.0 0.00 0.00 0.00 87 1029.3
20190322101216 49 239 3.0 6.0 0.00 0.00 0.00 87 1029.3
20190322101016 49 233 3.0 6.0 0.00 0.00 0.00 87 1029.3
20190322100516 49 175 5.0 9.0 0.00 0.00 0.00 87 1029.3
20190322100215 49 196 4.0 6.0 0.00 0.00 0.00 87 1029.3
20190322100015 49 200 5.0 10.0 0.00 0.00 0.00 87 1029.4
20190322095515 48 205 3.0 6.0 0.00 0.00 0.00 87 1029.4
20190322095216 48 244 5.0 9.0 0.00 0.00 0.00 87 1029.4
20190322095016 48 233 3.0 7.0 0.00 0.00 0.00 87 1029.4
20190322094516 48 208 5.0 9.0 0.00 0.00 0.00 87 1029.4
20190322094215 48 195 3.0 9.0 0.00 0.00 0.00 87 1029.3
20190322094016 48 226 4.0 6.0 0.00 0.00 0.00 87 1029.3
20190322093517 48 195 3.0 7.0 0.00 0.00 0.00 89 1029.4
20190322093215 48 183 3.0 6.0 0.00 0.00 0.00 89 1029.3
20190322093017 48 201 3.0 8.0 0.00 0.00 0.00 89 1029.3
20190322092516 48 177 5.0 8.0 0.00 0.00 0.00 88 1029.3
20190322092215 48 186 6.0 9.0 0.00 0.00 0.00 87 1029.3
20190322092016 48 186 3.0 9.0 0.00 0.00 0.00 89 1029.4
20190322091515 48 201 3.0 9.0 0.00 0.00 0.00 89 1029.4
20190322091215 48 199 7.0 12.0 0.00 0.00 0.00 89 1029.4
20190322091016 48 206 6.0 12.0 0.00 0.00 0.00 89 1029.4
20190322090516 48 206 2.0 5.0 0.00 0.00 0.00 89 1029.4
20190322090214 48 187 2.0 5.0 0.00 0.00 0.00 89 1029.4
20190322090015 48 210 3.0 9.0 0.00 0.00 0.00 89 1029.4
20190322085515 48 228 2.0 9.0 0.00 0.00 0.00 89 1029.5
20190322085216 48 195 5.0 9.0 0.00 0.00 0.00 89 1029.5
20190322085015 48 257 5.0 9.0 0.00 0.00 0.00 89 1029.5
20190322084515 48 219 3.0 6.0 0.00 0.00 0.00 89 1029.5
20190322084215 48 219 3.0 5.0 0.00 0.00 0.00 89 1029.5
20190322084016 48 229 4.0 7.0 0.00 0.00 0.00 89 1029.5
20190322083517 48 208 3.0 8.0 0.00 0.00 0.00 89 1029.5
20190322083215 48 259 4.0 9.0 0.00 0.00 0.00 89 1029.5
20190322083016 48 266 6.0 12.0 0.00 0.00 0.00 89 1029.5
20190322082516 48 256 3.0 7.0 0.00 0.00 0.00 89 1029.5
20190322082215 48 225 2.0 3.0 0.00 0.00 0.00 89 1029.5
20190322082016 48 215 3.0 8.0 0.00 0.00 0.00 89 1029.5
20190322081516 48 222 4.0 10.0 0.00 0.00 0.00 89 1029.6
20190322081215 48 195 7.0 12.0 0.00 0.00 0.00 89 1029.6
20190322081016 48 194 4.0 8.0 0.00 0.00 0.00 89 1029.6
20190322080516 48 205 6.0 9.0 0.00 0.00 0.00 89 1029.6
20190322080215 48 206 5.0 10.0 0.00 0.00 0.00 89 1029.6
20190322080015 48 200 4.0 10.0 0.00 0.00 0.00 87 1029.6
20190322075516 48 205 6.0 12.0 0.00 0.00 0.00 87 1029.6
20190322075215 48 189 4.0 12.0 0.00 0.00 0.00 87 1029.6
20190322075015 48 203 5.0 8.0 0.00 0.00 0.00 87 1029.6
20190322074515 48 203 6.0 12.0 0.00 0.00 0.00 87 1029.6
20190322074214 48 201 6.0 10.0 0.00 0.00 0.00 87 1029.6
20190322074016 48 199 4.0 8.0 0.00 0.00 0.00 87 1029.5
20190322073515 48 217 4.0 7.0 0.00 0.00 0.00 87 1029.5
20190322073215 48 201 5.0 7.0 0.00 0.00 0.00 87 1029.6
20190322073016 48 200 3.0 8.0 0.00 0.00 0.00 87 1029.5
20190322072515 48 211 3.0 6.0 0.00 0.00 0.00 87 1029.5
20190322072215 48 195 4.0 7.0 0.00 0.00 0.00 87 1029.4
20190322072016 48 204 3.0 6.0 0.00 0.00 0.00 86 1029.4
20190322071516 48 214 3.0 7.0 0.00 0.00 0.00 86 1029.4
20190322071215 48 230 4.0 8.0 0.00 0.00 0.00 86 1029.4
20190322071016 48 215 5.0 9.0 0.00 0.00 0.00 86 1029.4
20190322070515 48 185 4.0 8.0 0.00 0.00 0.00 87 1029.4
20190322070215 48 197 5.0 9.0 0.00 0.00 0.00 86 1029.4
20190322070015 48 183 3.0 8.0 0.00 0.00 0.00 87 1029.4
20190322065516 48 191 2.0 5.0 0.00 0.00 0.00 86 1029.4
20190322065215 48 167 5.0 12.0 0.00 0.00 0.00 86 1029.4
20190322065016 48 173 5.0 9.0 0.00 0.00 0.00 87 1029.4
20190322064515 48 197 5.0 9.0 0.00 0.00 0.00 87 1029.3
20190322064215 48 187 5.0 6.0 0.00 0.00 0.00 86 1029.3
20190322064016 48 195 3.0 9.0 0.00 0.00 0.00 87 1029.3
20190322063516 48 205 4.0 7.0 0.00 0.00 0.00 86 1029.3
20190322063215 48 195 4.0 7.0 0.00 0.00 0.00 87 1029.3
20190322063015 48 182 3.0 6.0 0.00 0.00 0.00 87 1029.3
20190322062515 48 192 3.0 6.0 0.00 0.00 0.00 86 1029.3
20190322062215 48 183 5.0 9.0 0.00 0.00 0.00 86 1029.4
20190322062015 48 200 4.0 14.0 0.00 0.00 0.00 86 1029.4
20190322061515 48 183 3.0 7.0 0.00 0.00 0.00 86 1029.4
20190322061215 48 188 4.0 6.0 0.00 0.00 0.00 86 1029.4
20190322061016 48 196 3.0 6.0 0.00 0.00 0.00 86 1029.5
20190322060515 48 196 4.0 6.0 0.00 0.00 0.00 86 1029.5
20190322060215 48 200 4.0 6.0 0.00 0.00 0.00 86 1029.5
20190322060015 48 199 3.0 6.0 0.00 0.00 0.00 86 1029.5
20190322055515 48 205 6.0 9.0 0.00 0.00 0.00 86 1029.5
20190322055216 48 190 4.0 8.0 0.00 0.00 0.00 86 1029.5
20190322055016 48 200 4.0 8.0 0.00 0.00 0.00 86 1029.5
20190322054514 48 203 4.0 8.0 0.00 0.00 0.00 86 1029.5
20190322054216 48 201 3.0 6.0 0.00 0.00 0.00 85 1029.5
20190322054016 48 207 5.0 9.0 0.00 0.00 0.00 85 1029.5
20190322053515 48 209 3.0 8.0 0.00 0.00 0.00 85 1029.5
20190322053214 48 217 3.0 9.0 0.00 0.00 0.00 85 1029.4
20190322053016 48 221 3.0 6.0 0.00 0.00 0.00 85 1029.4
20190322052515 48 213 2.0 7.0 0.00 0.00 0.00 85 1029.4
20190322052215 48 214 4.0 8.0 0.00 0.00 0.00 85 1029.4
20190322052016 48 216 5.0 12.0 0.00 0.00 0.00 85 1029.5
20190322051516 48 197 5.0 10.0 0.00 0.00 0.00 85 1029.4
20190322051215 48 207 6.0 8.0 0.00 0.00 0.00 85 1029.5
20190322051015 48 197 6.0 12.0 0.00 0.00 0.00 84 1029.4
20190322050514 48 186 6.0 7.0 0.00 0.00 0.00 84 1029.5
20190322050215 48 191 5.0 7.0 0.00 0.00 0.00 84 1029.5
20190322050015 48 197 4.0 12.0 0.00 0.00 0.00 84 1029.5
20190322045515 48 203 7.0 13.0 0.00 0.00 0.00 84 1029.4
20190322045215 48 203 5.0 7.0 0.00 0.00 0.00 84 1029.5
20190322045015 48 199 4.0 8.0 0.00 0.00 0.00 84 1029.5
20190322044515 48 173 3.0 9.0 0.00 0.00 0.00 84 1029.6
20190322044215 48 199 7.0 9.0 0.00 0.00 0.00 84 1029.6
20190322044018 48 207 8.0 10.0 0.00 0.00 0.00 84 1029.6
20190322043518 49 177 6.0 9.0 0.00 0.00 0.00 84 1029.6
20190322043216 49 166 6.0 10.0 0.00 0.00 0.00 84 1029.6
20190322043015 49 179 3.0 12.0 0.00 0.00 0.00 84 1029.6
20190322042515 49 182 5.0 12.0 0.00 0.00 0.00 84 1029.6
20190322042214 49 206 5.0 9.0 0.00 0.00 0.00 84 1029.6
20190322042016 49 196 5.0 9.0 0.00 0.00 0.00 84 1029.6
20190322041516 49 194 4.0 8.0 0.00 0.00 0.00 82 1029.7
20190322041215 49 192 5.0 8.0 0.00 0.00 0.00 82 1029.7
20190322041015 49 215 3.0 7.0 0.00 0.00 0.00 82 1029.6
20190322040514 49 188 3.0 6.0 0.00 0.00 0.00 82 1029.7
20190322040218 49 205 3.0 7.0 0.00 0.00 0.00 82 1029.7
20190322040015 49 198 5.0 7.0 0.00 0.00 0.00 82 1029.7
20190322035514 49 195 5.0 10.0 0.00 0.00 0.00 82 1029.7
20190322035215 49 197 6.0 12.0 0.00 0.00 0.00 82 1029.8
20190322035015 49 196 5.0 9.0 0.00 0.00 0.00 82 1029.8
20190322034515 49 185 5.0 9.0 0.00 0.00 0.00 81 1029.8
20190322034215 49 189 5.0 8.0 0.00 0.00 0.00 81 1029.9
20190322034015 49 203 5.0 9.0 0.00 0.00 0.00 81 1029.9
20190322033517 49 214 6.0 10.0 0.00 0.00 0.00 81 1030.0
20190322033214 49 195 6.0 10.0 0.00 0.00 0.00 81 1030.0
20190322033016 49 197 8.0 12.0 0.00 0.00 0.00 81 1030.0
20190322032514 49 190 7.0 9.0 0.00 0.00 0.00 81 1030.0
20190322032214 49 187 5.0 9.0 0.00 0.00 0.00 81 1030.0
20190322032016 50 175 5.0 12.0 0.00 0.00 0.00 81 1030.0
20190322031515 50 184 5.0 10.0 0.00 0.00 0.00 81 1030.0
20190322031215 50 163 3.0 6.0 0.00 0.00 0.00 81 1030.0
20190322031015 50 169 5.0 10.0 0.00 0.00 0.00 80 1030.0
20190322030515 50 201 6.0 12.0 0.00 0.00 0.00 80 1030.1
20190322030215 50 170 6.0 9.0 0.00 0.00 0.00 81 1030.1
20190322030015 50 191 7.0 12.0 0.00 0.00 0.00 81 1030.1
20190322025514 50 189 6.0 12.0 0.00 0.00 0.00 81 1030.1
20190322025215 50 177 6.0 10.0 0.00 0.00 0.00 81 1030.1
20190322025015 50 179 6.0 9.0 0.00 0.00 0.00 81 1030.1
20190322024515 50 155 6.0 12.0 0.00 0.00 0.00 82 1030.1
20190322024214 50 165 7.0 9.0 0.00 0.00 0.00 81 1030.1
20190322024015 50 152 6.0 9.0 0.00 0.00 0.00 82 1030.2
20190322023515 50 150 5.0 8.0 0.00 0.00 0.00 82 1030.2
20190322023214 50 163 5.0 6.0 0.00 0.00 0.00 82 1030.2
20190322023016 51 151 4.0 6.0 0.00 0.00 0.00 82 1030.2
20190322022515 51 156 4.0 8.0 0.00 0.00 0.00 82 1030.2
20190322022214 51 153 5.0 8.0 0.00 0.00 0.00 82 1030.3
20190322022015 51 151 5.0 9.0 0.00 0.00 0.00 82 1030.3
20190322021516 51 148 3.0 7.0 0.00 0.00 0.00 82 1030.3
20190322021214 51 158 5.0 6.0 0.00 0.00 0.00 82 1030.3
20190322021015 51 160 3.0 7.0 0.00 0.00 0.00 82 1030.3
20190322020515 51 165 5.0 6.0 0.00 0.00 0.00 81 1030.3
20190322020215 51 164 6.0 10.0 0.00 0.00 0.00 81 1030.3
20190322020014 51 160 6.0 10.0 0.00 0.00 0.00 81 1030.4
20190322015514 51 152 7.0 10.0 0.00 0.00 0.00 81 1030.4
20190322015215 51 158 6.0 8.0 0.00 0.00 0.00 82 1030.4
20190322015015 51 159 4.0 12.0 0.00 0.00 0.00 82 1030.4
20190322014514 51 160 7.0 12.0 0.00 0.00 0.00 82 1030.5
20190322014215 51 173 4.0 7.0 0.00 0.00 0.00 82 1030.4
20190322014016 51 177 6.0 9.0 0.00 0.00 0.00 82 1030.4
20190322013516 51 153 5.0 7.0 0.00 0.00 0.00 82 1030.5
20190322013215 51 166 2.0 6.0 0.00 0.00 0.00 82 1030.5
20190322013015 51 168 5.0 12.0 0.00 0.00 0.00 81 1030.5
20190322012515 51 167 5.0 10.0 0.00 0.00 0.00 81 1030.6
20190322012214 51 198 5.0 7.0 0.00 0.00 0.00 81 1030.6
20190322012015 51 149 6.0 9.0 0.00 0.00 0.00 81 1030.6
20190322011515 52 185 3.0 7.0 0.00 0.00 0.00 81 1030.6
20190322011214 52 187 4.0 8.0 0.00 0.00 0.00 81 1030.7
20190322011015 52 162 3.0 8.0 0.00 0.00 0.00 81 1030.7
20190322010515 52 160 4.0 10.0 0.00 0.00 0.00 81 1030.6
20190322010214 52 180 4.0 5.0 0.00 0.00 0.00 81 1030.6
20190322010014 52 152 6.0 9.0 0.00 0.00 0.00 81 1030.6
20190322005514 52 158 4.0 8.0 0.00 0.00 0.00 81 1030.7
20190322005215 52 164 6.0 12.0 0.00 0.00 0.00 81 1030.7
20190322005015 52 179 3.0 7.0 0.00 0.00 0.00 81 1030.7
20190322004515 52 188 4.0 6.0 0.00 0.00 0.00 80 1030.8
20190322004215 52 183 5.0 8.0 0.00 0.00 0.00 80 1030.8
20190322004015 52 152 3.0 7.0 0.00 0.00 0.00 80 1030.7
20190322003516 52 161 7.0 12.0 0.00 0.00 0.00 80 1030.7